GW3419 Weather Reports


time (UTC)temp
C
wind
direction
speed
KPH
gust
KPH
rain 1hr
cm
rain 24hr
cm
rain mn
cm
humidity
%
barometer
mb
20260906180003 25 208 8.0 16.1 0.00 0.00 0.00 72 1015.1
20260906175457 25 136 4.8 8.0 0.00 0.00 0.00 72 1015.3
20260906174955 25 171 3.2 11.3 0.00 0.00 0.00 72 1015.4
20260906174449 25 215 9.7 11.3 0.00 0.00 0.00 72 1015.2
20260906173944 26 209 4.8 9.7 0.00 0.00 0.00 71 1015.4
20260906173439 26 232 6.4 11.3 0.00 0.00 0.00 71 1015.5
20260906172938 25 170 4.8 9.7 0.00 0.00 0.00 74 1015.4
20260906172430 25 167 3.2 9.7 0.00 0.00 0.00 74 1015.4
20260906171925 25 195 4.8 12.9 0.00 0.00 0.00 73 1015.7
20260906171419 24 203 9.7 17.7 0.00 0.00 0.00 74 1015.4
20260906170915 25 201 6.4 11.3 0.00 0.00 0.00 74 1015.4
20260906170411 23 221 6.4 14.5 0.00 0.00 0.00 75 1015.6
20260906165908 25 205 6.4 12.9 0.00 0.00 0.00 74 1015.6
20260906165407 24 125 3.2 9.7 0.00 0.00 0.00 75 1015.7
20260906164902 23 158 1.6 11.3 0.00 0.00 0.00 76 1015.5
20260906164400 23 241 1.6 16.1 0.00 0.00 0.00 76 1015.6
20260906163856 23 201 3.2 11.3 0.00 0.00 0.00 77 1015.7
20260906163347 23 201 4.8 14.5 0.00 0.00 0.00 79 1015.5
20260906162845 23 206 8.0 12.9 0.00 0.00 0.00 78 1015.7
20260906162343 23 195 6.4 11.3 0.00 0.00 0.00 80 1015.8
20260906161838 23 120 4.8 11.3 0.00 0.00 0.00 79 1015.7
20260906161338 23 168 6.4 9.7 0.00 0.00 0.00 79 1015.8
20260906160836 23 189 6.4 9.7 0.00 0.00 0.00 80 1015.5
20260906160330 23 213 4.8 14.5 0.00 0.00 0.00 81 1015.5
20260906155829 23 157 6.4 12.9 0.00 0.00 0.00 80 1015.8
20260906155317 23 209 4.8 17.7 0.00 0.00 0.00 81 1015.7
20260906154814 23 135 1.6 12.9 0.00 0.00 0.00 82 1015.7
20260906154308 22 224 4.8 9.7 0.00 0.00 0.00 82 1015.6
20260906153806 22 189 3.2 17.7 0.00 0.00 0.00 83 1015.6
20260906153300 23 209 4.8 6.4 0.00 0.00 0.00 83 1015.5
20260906152756 22 200 4.8 8.0 0.00 0.00 0.00 84 1015.6
20260906152251 22 180 4.8 8.0 0.00 0.00 0.00 84 1015.6
20260906151749 22 135 4.8 6.4 0.00 0.00 0.00 84 1015.9
20260906151246 22 204 3.2 9.7 0.00 0.00 0.00 83 1015.9
20260906150741 22 162 4.8 8.0 0.00 0.00 0.00 83 1016.0
20260906150237 22 187 3.2 8.0 0.00 0.00 0.00 85 1015.8
20260906145736 22 208 4.8 12.9 0.00 0.00 0.00 86 1016.0
20260906145234 21 202 4.8 12.9 0.00 0.00 0.00 86 1015.8
20260906144730 21 194 4.8 14.5 0.00 0.00 0.00 87 1015.8
20260906144224 22 202 12.9 12.9 0.00 0.00 0.00 86 1015.8
20260906143724 21 153 11.3 12.9 0.00 0.00 0.00 87 1015.8
20260906143221 21 135 8.0 17.7 0.00 0.00 0.00 88 1015.6
20260906142720 21 151 4.8 9.7 0.00 0.00 0.00 89 1015.6
20260906142216 21 219 6.4 8.0 0.00 0.00 0.00 90 1015.6
20260906141715 21 207 6.4 8.0 0.00 0.00 0.00 92 1015.4
20260906141209 21 198 3.2 12.9 0.00 0.00 0.00 93 1015.4
20260906140709 21 158 4.8 8.0 0.00 0.00 0.00 94 1015.4
20260906140204 21 206 6.4 9.7 0.00 0.00 0.00 94 1015.2
20260906135701 20 97 0.0 9.7 0.00 0.00 0.00 95 1015.2
20260906135157 20 189 3.2 12.9 0.00 0.00 0.00 97 1015.4
20260906134652 20 173 3.2 14.5 0.00 0.00 0.00 99 1015.1
20260906134147 20 200 6.4 11.3 0.00 0.00 0.00 99 1015.4
20260906133643 19 156 3.2 11.3 0.00 0.00 0.00 99 1015.2
20260906133138 19 156 3.2 11.3 0.00 0.00 0.00 99 1015.0
20260906132634 19 187 3.2 6.4 0.00 0.00 0.00 99 1015.1
20260906132129 19 235 0.0 9.7 0.00 0.00 0.00 99 1015.4
20260906131625 19 249 0.0 9.7 0.00 0.00 0.00 99 1015.5
20260906131119 18 142 1.6 6.4 0.00 0.00 0.00 99 1015.3
20260906130614 18 160 1.6 4.8 0.00 0.00 0.00 99 1015.5
20260906130109 18 178 3.2 6.4 0.00 0.00 0.00 99 1015.5
20260906125606 18 237 4.8 6.4 0.00 0.00 0.00 99 1015.2
20260906125100 18 180 1.6 6.4 0.00 0.00 0.00 99 1015.2
20260906124556 18 205 6.4 8.0 0.00 0.00 0.00 99 1015.1
20260906124051 18 206 6.4 11.3 0.00 0.00 0.00 99 1015.2
20260906123549 18 204 3.2 6.4 0.00 0.00 0.00 99 1015.2
20260906123045 18 216 0.0 6.4 0.00 0.00 0.00 99 1015.5
20260906122538 18 161 1.6 8.0 0.00 0.00 0.00 99 1015.0
20260906122035 18 133 4.8 8.0 0.00 0.00 0.00 99 1015.2
20260906121531 18 156 6.4 8.0 0.00 0.00 0.00 99 1015.1
20260906121027 18 181 3.2 9.7 0.00 0.00 0.00 99 1015.1
20260906120521 18 198 6.4 11.3 0.00 0.00 0.00 99 1014.9
20260906120019 18 178 4.8 8.0 0.00 0.00 0.00 99 1014.8
20260906115513 18 197 4.8 11.3 0.00 0.00 0.00 99 1014.8
20260906115008 18 207 6.4 11.3 0.00 0.00 0.00 99 1014.7
20260906114503 18 191 3.2 11.3 0.00 0.00 0.00 99 1014.6
20260906113959 18 205 6.4 8.0 0.00 0.00 0.00 99 1014.9
20260906113457 18 201 8.0 12.9 0.00 0.00 0.00 99 1014.8
20260906112953 18 144 3.2 8.0 0.00 0.00 0.00 99 1014.6
20260906112448 18 149 8.0 9.7 0.00 0.00 0.00 99 1014.7
20260906111944 18 156 3.2 8.0 0.00 0.00 0.00 99 1014.3
20260906111443 18 156 1.6 8.0 0.00 0.00 0.00 99 1014.4
20260906110938 18 160 4.8 8.0 0.00 0.00 0.00 99 1014.3
20260906110433 18 216 4.8 6.4 0.00 0.00 0.00 99 1014.6
20260906105932 18 167 1.6 8.0 0.00 0.00 0.00 99 1014.3
20260906105427 18 179 1.6 8.0 0.00 0.00 0.00 99 1014.1
20260906104923 18 183 3.2 8.0 0.00 0.00 0.00 99 1013.7
20260906104422 18 149 1.6 4.8 0.00 0.00 0.00 99 1013.8
20260906103916 18 152 1.6 6.4 0.00 0.00 0.00 99 1014.0
20260906103414 18 133 1.6 6.4 0.00 0.00 0.00 99 1013.7
20260906102910 18 118 1.6 6.4 0.00 0.00 0.00 99 1014.1
20260906102409 18 181 4.8 9.7 0.00 0.00 0.00 99 1013.9
20260906101904 18 136 0.0 6.4 0.00 0.00 0.00 99 1014.1
20260906101359 18 180 3.2 6.4 0.00 0.00 0.00 99 1013.8
20260906100855 18 168 4.8 8.0 0.00 0.00 0.00 99 1013.8
20260906100354 18 114 6.4 9.7 0.00 0.00 0.00 99 1013.5
20260906095849 18 160 3.2 6.4 0.00 0.00 0.00 99 1013.6
20260906095344 18 118 4.8 8.0 0.00 0.00 0.00 99 1013.9
20260906094843 18 130 6.4 8.0 0.00 0.00 0.00 99 1013.7
20260906094339 18 174 1.6 4.8 0.00 0.00 0.00 99 1013.7
20260906093835 18 176 1.6 14.5 0.00 0.00 0.00 99 1013.6
20260906093331 18 142 6.4 8.0 0.00 0.00 0.00 99 1013.6
20260906092825 18 123 3.2 9.7 0.00 0.00 0.00 99 1013.5
20260906092319 18 142 3.2 6.4 0.00 0.00 0.00 99 1013.6
20260906091815 18 159 4.8 11.3 0.00 0.00 0.00 99 1013.4
20260906091312 18 152 3.2 9.7 0.00 0.00 0.00 99 1013.2
20260906090807 18 162 4.8 9.7 0.00 0.00 0.00 99 1013.3
20260906090306 18 166 6.4 11.3 0.00 0.00 0.00 99 1013.2
20260906085806 18 121 3.2 8.0 0.00 0.00 0.00 99 1013.3
20260906085306 18 142 3.2 8.0 0.00 0.00 0.00 99 1013.5
20260906084800 18 180 0.0 4.8 0.00 0.00 0.00 99 1013.4
20260906084300 18 181 3.2 4.8 0.00 0.00 0.00 99 1013.4
20260906083749 18 123 0.0 6.4 0.00 0.00 0.00 99 1013.6
20260906083245 18 102 1.6 4.8 0.00 0.00 0.00 99 1013.4
20260906082739 18 170 4.8 6.4 0.00 0.00 0.00 99 1013.7
20260906082234 18 131 0.0 4.8 0.00 0.00 0.00 99 1013.6
20260906081730 18 143 1.6 3.2 0.00 0.00 0.00 99 1013.6
20260906081225 18 233 0.0 4.8 0.00 0.00 0.00 99 1013.6
20260906080721 18 128 1.6 3.2 0.00 0.00 0.00 99 1013.6
20260906080218 18 188 0.0 4.8 0.00 0.00 0.00 99 1013.5
20260906075712 19 214 0.0 4.8 0.00 0.00 0.00 99 1013.6
20260906075207 19 179 1.6 3.2 0.00 0.00 0.00 99 1013.7
20260906074702 19 192 0.0 4.8 0.00 0.00 0.00 99 1013.6
20260906074201 19 196 0.0 3.2 0.00 0.00 0.00 99 1013.6
20260906073656 19 134 0.0 4.8 0.00 0.00 0.00 99 1013.6
20260906073151 19 184 1.6 4.8 0.00 0.00 0.00 99 1013.6
20260906072646 19 194 3.2 4.8 0.00 0.00 0.00 99 1013.4
20260906072136 20 183 3.2 4.8 0.00 0.00 0.00 99 1013.5
20260906071633 20 161 3.2 6.4 0.00 0.00 0.00 99 1013.5
20260906071132 20 185 1.6 4.8 0.00 0.00 0.00 99 1013.5
20260906070629 20 123 4.8 6.4 0.00 0.00 0.00 99 1013.7
20260906070124 20 137 3.2 6.4 0.00 0.00 0.00 99 1013.7
20260906065624 20 208 3.2 4.8 0.00 0.00 0.00 99 1013.5
20260906065119 20 162 3.2 8.0 0.00 0.00 0.00 99 1013.7
20260906064615 20 157 0.0 8.0 0.00 0.00 0.00 99 1013.5
20260906064109 20 274 0.0 6.4 0.00 0.00 0.00 99 1013.7
20260906063605 20 177 3.2 8.0 0.00 0.00 0.00 99 1013.8
20260906063101 20 116 3.2 6.4 0.00 0.00 0.00 99 1014.1
20260906062557 20 124 3.2 8.0 0.00 0.00 0.00 99 1013.9
20260906062055 20 137 0.0 4.8 0.00 0.00 0.00 99 1013.8
20260906061552 20 117 3.2 4.8 0.00 0.00 0.00 99 1013.7
20260906061051 20 156 1.6 6.4 0.00 0.00 0.00 99 1013.8
20260906060548 20 174 3.2 4.8 0.00 0.00 0.00 99 1014.1
20260906060045 20 122 4.8 4.8 0.00 0.00 0.00 99 1013.9
20260906055541 20 144 3.2 4.8 0.00 0.00 0.00 99 1013.7
20260906055036 20 150 4.8 6.4 0.00 0.00 0.00 99 1013.8
20260906054536 20 147 0.0 4.8 0.00 0.00 0.00 99 1013.8
20260906054031 20 141 1.6 4.8 0.00 0.00 0.00 99 1013.9
20260906053527 20 97 1.6 3.2 0.00 0.00 0.00 99 1014.0
20260906053022 20 48 0.0 3.2 0.00 0.00 0.00 99 1014.1
20260906052518 20 50 0.0 4.8 0.00 0.00 0.00 99 1014.1
20260906052015 20 19 0.0 4.8 0.00 0.00 0.00 99 1013.9
20260906051510 20 50 0.0 3.2 0.00 0.00 0.00 99 1013.9
20260906051006 20 99 0.0 3.2 0.00 0.00 0.00 99 1014.1
20260906050506 20 151 3.2 4.8 0.00 0.00 0.00 99 1014.1
20260906050000 20 166 0.0 3.2 0.00 0.00 0.00 99 1014.0
20260906045459 20 147 0.0 3.2 0.00 0.00 0.00 99 1013.9
20260906044955 20 135 0.0 3.2 0.00 0.00 0.00 99 1014.1
20260906044449 20 32 1.6 3.2 0.00 0.00 0.00 99 1014.2
20260906043940 20 326 0.0 3.2 0.00 0.00 0.00 98 1014.1
20260906043435 20 34 0.0 3.2 0.00 0.00 0.00 98 1014.1
20260906042931 20 20 1.6 3.2 0.00 0.00 0.00 98 1013.9
20260906042430 20 59 1.6 3.2 0.00 0.00 0.00 98 1014.1
20260906041924 20 42 0.0 1.6 0.00 0.00 0.00 98 1013.9
20260906041420 20 129 0.0 3.2 0.00 0.00 0.00 98 1013.8
20260906040915 20 186 0.0 3.2 0.00 0.00 0.00 98 1013.8
20260906040410 20 126 1.6 3.2 0.00 0.00 0.00 98 1013.8
20260906035905 20 142 0.0 4.8 0.00 0.00 0.00 97 1014.1
20260906035401 20 99 0.0 3.2 0.00 0.00 0.00 97 1014.2
20260906034855 20 66 0.0 3.2 0.00 0.00 0.00 97 1014.2
20260906034350 20 89 0.0 3.2 0.00 0.00 0.00 97 1014.2
20260906033846 20 50 3.2 4.8 0.00 0.00 0.00 97 1013.9
20260906033345 20 37 0.0 1.6 0.00 0.00 0.00 97 1014.0
20260906032842 20 44 0.0 1.6 0.00 0.00 0.00 97 1013.9
20260906032337 20 46 0.0 1.6 0.00 0.00 0.00 97 1013.8
20260906031832 20 68 0.0 1.6 0.00 0.00 0.00 97 1013.7
20260906031328 20 230 0.0 1.6 0.00 0.00 0.00 97 1013.6
20260906030827 20 217 0.0 1.6 0.00 0.00 0.00 97 1013.6
20260906030323 20 235 0.0 3.2 0.00 0.00 0.00 97 1013.8
20260906025817 20 315 0.0 1.6 0.00 0.00 0.00 97 1013.4
20260906025311 20 300 0.0 1.6 0.00 0.00 0.00 97 1013.5
20260906024810 20 309 0.0 1.6 0.00 0.00 0.00 97 1013.5
20260906024309 20 170 0.0 1.6 0.00 0.00 0.00 97 1013.4
20260906023805 20 173 0.0 1.6 0.00 0.00 0.00 97 1013.1
20260906023300 20 283 0.0 4.8 0.00 0.00 0.00 97 1013.4
20260906022755 20 34 0.0 1.6 0.00 0.00 0.00 97 1013.0
20260906022251 21 73 0.0 3.2 0.00 0.00 0.00 97 1012.7
20260906021747 21 0 0.0 1.6 0.00 0.00 0.00 97 1012.9
20260906021240 21 140 0.0 3.2 0.00 0.00 0.00 97 1012.9
20260906020735 21 162 0.0 3.2 0.00 0.00 0.00 97 1012.7
20260906020235 21 53 0.0 3.2 0.00 0.00 0.00 97 1012.6
20260906015730 21 230 0.0 0.0 0.00 0.00 0.00 96 1012.7
20260906015228 21 135 0.0 3.2 0.00 0.00 0.00 96 1012.7
20260906014722 21 235 0.0 1.6 0.00 0.00 0.00 95 1012.5
20260906014219 21 315 0.0 1.6 0.00 0.00 0.00 95 1012.4
20260906013715 21 230 0.0 1.6 0.00 0.00 0.00 95 1012.0
20260906013214 21 147 0.0 3.2 0.00 0.00 0.00 94 1012.3
20260906012710 22 31 0.0 3.2 0.00 0.00 0.00 93 1012.3
20260906012204 22 130 0.0 3.2 0.00 0.00 0.00 93 1012.1
20260906011659 22 58 0.0 3.2 0.00 0.00 0.00 93 1012.1
20260906011154 22 157 0.0 3.2 0.00 0.00 0.00 92 1012.1
20260906010650 22 65 0.0 3.2 0.00 0.00 0.00 92 1012.0
20260906010146 22 89 0.0 4.8 0.00 0.00 0.00 92 1011.7
20260906005645 22 199 3.2 4.8 0.00 0.00 0.00 91 1011.8
20260906005144 22 196 1.6 4.8 0.00 0.00 0.00 91 1011.9
20260906004643 23 202 3.2 3.2 0.00 0.00 0.00 91 1012.0
20260906004139 23 224 1.6 4.8 0.00 0.00 0.00 90 1011.8
20260906003634 23 212 3.2 4.8 0.00 0.00 0.00 90 1011.7
20260906003130 23 156 3.2 4.8 0.00 0.00 0.00 90 1011.7
20260906002625 23 203 3.2 6.4 0.00 0.00 0.00 90 1011.6
20260906002119 23 209 3.2 4.8 0.00 0.00 0.00 89 1011.6
20260906001614 23 172 1.6 4.8 0.00 0.00 0.00 89 1011.7
20260906001109 24 75 3.2 4.8 0.00 0.00 0.00 89 1011.8
20260906000605 24 241 1.6 4.8 0.00 0.00 0.00 89 1011.7
20260906000100 24 186 0.0 8.0 0.00 0.00 0.00 88 1011.5
20260905235559 24 159 3.2 6.4 0.00 0.00 0.00 88 1011.7
20260905235054 24 10 1.6 3.2 0.00 0.00 0.00 88 1011.9
20260905234550 24 153 0.0 3.2 0.00 0.00 0.00 88 1011.6
20260905234044 24 218 3.2 4.8 0.00 0.00 0.00 88 1011.6
20260905233539 24 169 3.2 4.8 0.00 0.00 0.00 87 1011.0
20260905233039 24 180 1.6 6.4 0.00 0.00 0.00 87 1011.5
20260905232534 25 96 0.0 8.0 0.00 0.00 0.00 87 1011.0
20260905232030 25 164 3.2 4.8 0.00 0.00 0.00 87 1011.3
20260905231525 25 185 0.0 3.2 0.00 0.00 0.00 87 1011.2
20260905231021 25 111 3.2 8.0 0.00 0.00 0.00 86 1011.1
20260905230520 25 60 0.0 16.1 0.00 0.00 0.00 86 1010.9
20260905230019 25 160 1.6 6.4 0.00 0.00 0.00 86 1011.0
20260905225514 25 109 3.2 8.0 0.00 0.00 0.00 86 1010.8
20260905225009 25 221 1.6 8.0 0.00 0.00 0.00 86 1011.0
20260905224504 25 199 3.2 8.0 0.00 0.00 0.00 85 1011.0
20260905224003 25 7 1.6 6.4 0.00 0.00 0.00 85 1011.2
20260905223501 25 18 0.0 4.8 0.00 0.00 0.00 85 1011.0
20260905222956 25 276 3.2 8.0 0.00 0.00 0.00 85 1011.1
20260905222456 25 168 3.2 9.7 0.00 0.00 0.00 85 1011.0
20260905221951 25 183 3.2 9.7 0.00 0.00 0.00 84 1011.1
20260905221448 25 335 0.0 8.0 0.00 0.00 0.00 84 1011.3
20260905220944 25 17 1.6 8.0 0.00 0.00 0.00 84 1011.5
20260905220440 25 147 3.2 8.0 0.00 0.00 0.00 84 1011.5
20260905215938 25 171 1.6 11.3 0.00 0.00 0.00 84 1011.6
20260905215434 25 29 0.0 9.7 0.00 0.00 0.00 84 1011.3
20260905214931 25 215 1.6 9.7 0.00 0.00 0.00 84 1011.5
20260905214426 25 22 3.2 14.5 0.00 0.00 0.00 84 1011.7
20260905213925 25 149 4.8 11.3 0.00 0.00 0.00 84 1011.5
20260905213421 25 346 1.6 17.7 0.00 0.00 0.00 85 1011.8
20260905212917 25 165 3.2 12.9 0.00 0.00 0.00 85 1011.6
20260905212412 25 147 4.8 9.7 0.00 0.00 0.00 85 1011.8
20260905211910 25 109 3.2 12.9 0.00 0.00 0.00 84 1011.9
20260905211407 25 153 1.6 8.0 0.00 0.00 0.00 83 1012.0
20260905210902 25 77 3.2 11.3 0.00 0.00 0.00 82 1012.2
20260905210357 25 171 3.2 8.0 0.00 0.00 0.00 82 1012.1
20260905205856 25 135 3.2 6.4 0.00 0.00 0.00 82 1012.0
20260905205350 25 327 0.0 6.4 0.00 0.00 0.00 82 1012.2
20260905204844 25 172 3.2 8.0 0.00 0.00 0.00 82 1012.3
20260905204341 25 70 8.0 9.7 0.00 0.00 0.00 81 1012.4
20260905203838 25 86 0.0 8.0 0.00 0.00 0.00 82 1012.3
20260905203335 26 136 3.2 8.0 0.00 0.00 0.00 81 1012.4
20260905202825 26 145 0.0 8.0 0.00 0.00 0.00 81 1012.6
20260905202319 26 103 0.0 8.0 0.00 0.00 0.00 81 1012.4
20260905201815 25 55 3.2 6.4 0.00 0.00 0.00 82 1012.4
20260905201311 25 39 3.2 6.4 0.00 0.00 0.00 83 1012.5
20260905200805 25 61 8.0 9.7 0.00 0.00 0.00 84 1012.5
20260905200301 25 54 3.2 9.7 0.00 0.00 0.00 83 1012.5
20260905195759 25 54 3.2 9.7 0.00 0.00 0.00 83 1012.6
20260905195254 25 77 3.2 8.0 0.00 0.00 0.00 83 1012.5
20260905194749 26 98 1.6 6.4 0.00 0.00 0.00 81 1012.7
20260905194248 26 29 1.6 8.0 0.00 0.00 0.00 80 1012.6
20260905193743 26 159 0.0 6.4 0.00 0.00 0.00 79 1012.7
20260905193237 26 54 3.2 8.0 0.00 0.00 0.00 82 1012.6
20260905192727 26 58 4.8 11.3 0.00 0.00 0.00 80 1012.5
20260905192224 26 116 4.8 14.5 0.00 0.00 0.00 82 1012.2
20260905191723 26 25 9.7 12.9 0.00 0.00 0.00 81 1012.5
20260905191221 26 28 4.8 11.3 0.00 0.00 0.00 83 1012.4
20260905190720 26 49 3.2 8.0 0.00 0.00 0.00 82 1012.6
20260905190219 26 73 3.2 14.5 0.00 0.00 0.00 82 1012.9
20260905185718 26 158 6.4 9.7 0.00 0.00 0.00 82 1013.2
20260905185213 26 174 3.2 6.4 0.00 0.00 0.00 80 1012.8
20260905184713 26 61 1.6 4.8 0.00 0.00 0.00 81 1013.0
20260905184212 25 214 0.0 8.0 0.00 0.00 0.00 84 1013.2
20260905183706 25 186 1.6 4.8 0.00 0.00 0.00 85 1013.2
20260905183202 25 99 0.0 3.2 0.00 0.00 0.00 85 1013.4
20260905182700 25 174 0.0 4.8 0.00 0.00 0.00 85 1013.5
20260905182154 25 173 1.6 4.8 0.00 0.00 0.00 85 1013.1
20260905181650 25 56 6.4 8.0 0.00 0.00 0.00 85 1013.4
20260905181148 25 173 3.2 6.4 0.00 0.00 0.00 85 1013.4
20260905180643 24 113 0.0 4.8 0.00 0.00 0.00 87 1013.5